Location: Newark
(45.4422°N, 16.2769°E)
Time: 02:44:08
(UTC+00:00)

Courier 1B - Pass Details

Date: 11 December 2019
Orbit: 962 x 1209 km, 28.3° (Epoch: 23 January)

Event Time Altitude Azimuth Distance (km) Brightness Sun altitude
Rises 19:05:57 0° 211° (SSW) 3,869 10.9 -40.1°
Enters shadow 19:08:31 - 199° (SSW) 3,285 10.3 -40.5°
Reaches altitude 10° 19:10:22 10° 186° (S) 2,973 - -40.9°
Maximum altitude 19:13:36 13° 160° (SSE) 2,766 - -41.4°
Drops below altitude 10° 19:16:54 10° 133° (SE) 3,053 - -42.0°
Sets 19:21:34 0° 109° (ESE) 4,061 - -42.8°
